Location: Chuathbaluk
(61.5726°N, 159.2454°W)
Time: 15:55:15
(UTC+00:00)

ZACube-1 - Pass Details

Date: 24 January 2021
Orbit: 583 x 666 km, 97.6° (Epoch: 04 March)

Event Time Altitude Azimuth Distance (km) Brightness Sun altitude
Rises 17:41:28 0° 15° (NNE) 3,026 ? -10.7°
Reaches altitude 10° 17:43:57 10° 4° (N) 2,108 ? -10.4°
Maximum altitude 17:47:50 28° 307° (NW) 1,260 ? -9.9°
Drops below altitude 10° 17:51:41 10° 249° (WSW) 2,081 ? -9.5°
Sets 17:54:07 0° 238° (WSW) 2,980 ? -9.3°
